Regional Weather Roundup
Issued by NWS

Home | Current Version | Previous Version | Graphics & Text | Print | Product List | Glossary Off
Versions: 1 2 3 4 5 6 7 8 9 10 11 12 13 14 15 16 17 18 19 20 21 22 23 24 25 26 27 28 29 30 31 32 33 34 35 36 37 38 39 40 41 42 43 44 45 46 47 48 49 50

000
ASUS43 KDMX 230607
RWRIA

WEATHER ROUNDUP FOR IOWA
NATIONAL WEATHER SERVICE DES MOINES IA
100 AM CDT TUE SEP 23 2014

NOTE: "FAIR" INDICATES FEW OR NO CLOUDS BELOW 12,000 FEET WITH NO
SIGNIFICANT WEATHER AND/OR OBSTRUCTIONS TO VISIBILITY.

* - THESE STATIONS ARE NOT NWS STATIONS...THUS NOT UNDER NWS
QUALITY CONTROL.  THEY ALSO DO NOT REPORT WEATHER SUCH
AS PRECIPITATION OR FOG.

IAZ001>003-012>014-020>022-031>034-043>046-230700-
   NORTHWEST IOWA

CITY           SKY/WX    TMP DP  RH WIND       PRES   REMARKS
CARROLL *      CLEAR     50  48  93 S5        30.20S
CHEROKEE *     CLEAR     53  51  94 S3        30.17F
DENISON *      CLEAR     57  52  82 S9        30.17S
LE MARS *        N/A     55  50  82 S5        30.16S
ORANGE CITY *  CLEAR     55  46  71 SE5       30.16S
SHELDON *      CLEAR     52  50  93 S5        30.15F
SIOUX CITY     MOCLDY    58  52  80 SE6       30.16F
6HR MIN TEMP:  55; 6HR MAX TEMP:  68;

SPENCER        PTCLDY    51  47  86 S7        30.18S
6HR MIN TEMP:  50; 6HR MAX TEMP:  65;

STORM LAKE *   CLEAR     52  52 100 S9        30.19S
$$

IAZ055>058-069>071-079>083-090>094-230700-
   SOUTHWEST IOWA

CITY           SKY/WX    TMP DP  RH WIND       PRES   REMARKS
ATLANTIC *     CLEAR     55  52  88 S3        30.20S FOG
AUDUBON *      CLEAR     48  43  81 CALM      30.22S
CLARINDA *     CLEAR     54  52  94 CALM      30.22F
COUNCIL BLFS * MOCLDY    59  54  82 S7        30.18S
CRESTON *      CLEAR     54  52  94 SE6       30.22F
HARLAN  *      CLEAR     54  52  94 CALM      30.23S
LAMONI         MOCLDY    56  50  80 S6        30.23S
6HR MIN TEMP:  55; 6HR MAX TEMP:  67;

RED OAK *      PTCLDY    55  54  94 S3        30.20F
SHENANDOAH *   CLEAR     57  54  88 SE8       30.20F
$$

IAZ047>049-059>061-072>074-084-230700-
   CENTRAL IOWA

CITY           SKY/WX    TMP DP  RH WIND       PRES   REMARKS
AMES           MOCLDY    53  49  86 CALM      30.22S
6HR MIN TEMP:  51; 6HR MAX TEMP:  61;

ANKENY *       CLEAR     52  50  93 CALM      30.22S
CHARITON *     CLEAR     54  50  87 SE5       30.23S
DES MOINES     PTCLDY    57  50  77 S7        30.22S
6HR MIN TEMP:  57; 6HR MAX TEMP:  69;

GRINNELL*      PTCLDY    53  47  82 SE5       30.24S
KNOXVILLE *    CLEAR     55  50  82 S6        30.22S
MARSHALLTOWN   PTCLDY    49  47  93 SE5       30.22F
6HR MIN TEMP:  49; 6HR MAX TEMP:  65;

PELLA *        PTCLDY    53  49  89 CALM      30.24S
PERRY *          N/A     50  49  96 S6        30.21S
$$

IAZ004>006-015-016-023>025-035-036-230700-
   NORTH CENTRAL IOWA

CITY           SKY/WX    TMP DP  RH WIND       PRES   REMARKS
ALGONA *       CLEAR     52  48  87 S7        30.20S
CLARION *        N/A     52  50  93 S7        30.21S
ESTHERVILLE    CLEAR     49  46  90 S7        30.18F
6HR MIN TEMP:  48; 6HR MAX TEMP:  65;

FORT DODGE *   MOCLDY    54  48  82 CALM      30.21R
MASON CITY     CLEAR     49  47  93 S6        30.23S
6HR MIN TEMP:  47; 6HR MAX TEMP:  63;

FOREST CITY *  CLEAR     46  46 100 CALM      30.21S
IOWA FALLS *     N/A     50  46  87 CALM      30.23S
$$

IAZ007>011-017>019-026>030-037>042-050>054-066-230700-
   NORTHEAST IOWA

CITY           SKY/WX    TMP DP  RH WIND       PRES   REMARKS
CEDAR RAPIDS   CLEAR     49  47  93 S3        30.24S
6HR MIN TEMP:  48; 6HR MAX TEMP:  63;

CHARLES CITY * CLEAR     52  48  87 S7        30.23S
CLINTON *      CLEAR     46  43  87 CALM      30.28S
DECORAH *      CLEAR     54  48  82 CALM      30.22S
DUBUQUE        CLEAR     47  44  90 S3        30.26R
6HR MIN TEMP:  47; 6HR MAX TEMP:  61;

MONTICELLO *   CLEAR     45  45 100 CALM      30.25R
OELWEIN *      CLEAR     48  46  93 S6        30.24S
WATERLOO       CLEAR     47  44  90 SE3       30.22S
6HR MIN TEMP:  47; 6HR MAX TEMP:  64;

$$

IAZ064-065-067-068-078-230700-
   EAST CENTRAL IOWA

CITY           SKY/WX    TMP DP  RH WIND       PRES   REMARKS
DAVENPORT      CLEAR     48  44  86 CALM      30.26S
6HR MIN TEMP:  48; 6HR MAX TEMP:  60;

IOWA CITY      CLEAR     47  47 100 CALM      30.26S FOG
6HR MIN TEMP:  49; 6HR MAX TEMP:  65;

MT. PLEASANT * PTCLDY    49  45  87 SE3       30.25S
MUSCATINE *    CLEAR     48  46  93 CALM      30.26S
QUAD CITIES    CLEAR     48  45  89 CALM      30.26S
6HR MIN TEMP:  47; 6HR MAX TEMP:  60;

$$

IAZ062-063-075>077-085>089-095>099-230700-
   SOUTHEAST IOWA

CITY           SKY/WX    TMP DP  RH WIND       PRES   REMARKS
BURLINGTON     CLEAR     49  48  97 CALM      30.25S
6HR MIN TEMP:  49; 6HR MAX TEMP:  62; 6HR PCP: TRACE;

FAIRFIELD *    CLEAR     50  48  93 CALM      30.25S
FORT MADISON * CLEAR     52  46  82 CALM      30.26S
KEOKUK *       CLEAR     52  52 100 CALM      30.25R
OSKALOOSA *      N/A     50  48  91 S7        30.24F
CENTERVILLE *  CLEAR     48  48 100 SE3       30.25S
OTTUMWA        MOCLDY    51  49  92 S5        30.24S
6HR MIN TEMP:  50; 6HR MAX TEMP:  65; 6HR PCP: TRACE;

WASHINGTON *   CLEAR     50  48  93 CALM      30.25S
$$

ABBREVIATIONS USED IN REMARKS
   TC - TEMPERATURES IN CELSIUS
  WCI - WIND CHILL INDEX
   HX - HEAT INDEX
  VSB - VISIBILITY
$$



USA.gov is the U.S. government's official web portal to all federal, state and local government web resources and services.